[[{"header":{"parameterUnit":"m.s-1","parameterCategory":1,"la1":30.2991,"la2":30.254,"lo1":-89.0895,"lo2":-89.0444,"dx":0.0017,"dy":0.0017,"nx":28,"ny":28,"refTime":"2023-02-06T09:00:00:Z","depth":0,"parameterNumber":2,"parameterNumberName":"U-component_of_WINDS"},"data":[0,0,0,0,0,0,0,0,0,0,0,0,0,0,0,0,0,0,0,0,0,0,0,0,0,0,0,0,0,0,0,0,0,0,0,0,0,0,0,0,0,0,0,0,0,0,0,0,0,0,0,0,0,0,0,0,0,0,-4.2431,-4.2432,0,-4.2588,-4.259,-4.2591,-4.2587,-4.2585,-4.2583,-4.2581,-4.2741,-4.2747,-4.2753,0,0,0,0,0,0,0,0,0,0,0,0,0,-4.2126,-4.2132,-4.2431,-4.2433,-4.2435,-4.2588,-4.259,-4.2592,-4.2588,-4.2585,-4.2583,-4.258,-4.2739,-4.2746,-4.2754,0,0,0,0,0,0,0,0,0,0,0,0,0,-4.2269,-4.2134,-4.243,-4.2451,-4.2454,-4.2587,-4.259,-4.2593,-4.2588,-4.2585,-4.2582,-4.2579,-4.2736,-4.2745,-4.2755,-4.2877,0,0,-4.2783,-4.2787,0,0,0,0,0,0,0,0,-4.226,-4.228,-4.2446,-4.245,-4.2454,-4.2565,-4.2541,-4.2688,-4.2589,-4.2537,-4.2581,-4.2577,-4.2685,-4.2698,-4.2735,-4.2884,-4.2891,-4.2784,-4.279,-4.2794,-4.2796,0,0,0,0,0,0,0,-4.2251,-4.2273,-4.2493,-4.2448,-4.2453,-4.2452,-4.2469,-4.2569,-4.2627,-4.2542,-4.2542,-4.2561,-4.2686,-4.2726,-4.2738,-4.2893,-4.2784,-4.2792,-4.2798,-4.2802,-4.3152,-4.3155,0,0,0,0,0,0,-4.2237,-4.2265,-4.2488,-4.2498,-4.2347,-4.246,-4.2479,-4.2532,-4.2626,-4.2637,-4.2563,-4.256,-4.2711,-4.2727,-4.2744,-4.2893,-4.2794,-4.2803,-4.2808,-4.3148,-4.3152,-4.3156,0,0,0,0,0,0,-4.223,-4.2256,-4.2481,-4.2381,-4.241,-4.2469,-4.2529,-4.2537,-4.2577,-4.2642,-4.2653,-4.2593,-4.2709,-4.2731,-4.2844,-4.2898,-4.2807,-4.2815,-4.3144,-4.3149,-4.3154,-4.3192,0,0,0,0,0,0,-4.2221,-4.2254,-4.2301,-4.2382,-4.2415,-4.2579,-4.2533,-4.2543,-4.2593,-4.259,-4.2673,-4.2683,-4.2708,-4.283,-4.2853,-4.291,-4.2823,-4.3139,-4.3146,-4.3153,-4.3186,-4.3198,-4.3208,0,0,0,0,0,-4.221,-4.2305,-4.2303,-4.233,-4.2475,-4.2582,-4.2601,-4.2628,-4.2597,-4.2645,-4.2687,-4.2681,-4.2889,-4.2842,-4.2868,-4.2928,-4.3136,-4.3144,-4.3152,-4.3181,-4.3195,-4.3208,0,0,0,0,0,0,-4.2228,-4.2316,-4.2315,-4.2439,-4.2503,-4.2581,-4.2642,-4.2643,-4.2717,-4.2711,-4.2741,-4.276,-4.2873,-4.2912,-4.2858,-4.3051,-4.3008,-4.3022,-4.3021,-4.3036,-4.3046,-4.3034,-4.283,0,0,0,0,0,-4.2246,-4.2326,-4.2398,-4.2501,-4.2533,-4.2582,-4.263,-4.2646,-4.2713,-4.274,-4.2791,-4.2856,-4.2936,-4.2988,-4.3066,-4.3192,-4.321,-4.3246,-4.3257,-4.3266,-4.3277,-4.3347,-4.3364,-4.3183,-4.3183,-4.3183,0,0,-4.2284,-4.2342,-4.2391,-4.2506,-4.2557,-4.2639,-4.2605,-4.2692,-4.2753,-4.2753,-4.2863,-4.2903,-4.2978,-4.3098,-4.3154,-4.3134,-4.3331,-4.3277,-4.3283,-4.329,-4.3357,-4.3374,-4.3389,-4.3189,-4.3188,-4.3187,0,0,-4.2395,-4.2448,-4.2538,-4.2591,-4.267,-4.2703,-4.2724,-4.2803,-4.283,-4.2941,-4.2942,-4.3015,-4.3153,-4.3207,-4.3252,-4.3385,-4.3382,-4.341,-4.3467,-4.3535,-4.3549,-4.3561,-4.3608,-4.3625,-4.3421,-4.3421,-4.3421,0,-4.2432,-4.2556,-4.2585,-4.2673,-4.2724,-4.2729,-4.2821,-4.287,-4.2971,-4.3005,-4.2982,-4.3156,-4.3207,-4.3339,-4.3372,-4.3409,-4.3434,-4.34,-4.3544,-4.3558,-4.357,-4.3615,-4.3632,-4.3424,-4.3424,-4.3424,-4.3423,0,-4.2597,-4.2683,-4.2747,-4.2844,-4.2902,-4.2992,-4.3034,-4.309,-4.3101,-4.3136,-4.3249,-4.3311,-4.3401,-4.3434,-4.3446,-4.3569,-4.3554,-4.3538,-4.3495,-4.3589,-4.3632,-4.365,-4.3428,-4.3427,-4.3426,-4.3426,0,0,-4.2721,-4.2835,-4.2858,-4.2902,-4.299,-4.3057,-4.3148,-4.3236,-4.3283,-4.3352,-4.3428,-4.3546,-4.3531,-4.3583,-4.3601,-4.3661,-4.3762,-4.3637,-4.3639,-4.3657,-4.3901,-4.3911,-4.3931,-4.3761,-4.3764,-4.3767,-4.3894,0,-4.2841,-4.3001,-4.3031,-4.317,-4.325,-4.3257,-4.3336,-4.3398,-4.3434,-4.3506,-4.3546,-4.3628,-4.3603,-4.3634,-4.3694,-4.3737,-4.3811,-4.3728,-4.3831,-4.3834,-4.381,-4.3953,-4.3965,-4.4081,-4.3911,-4.3914,-4.3916,0,-4.3001,-4.3075,-4.3223,-4.3301,-4.3336,-4.3406,-4.349,-4.356,-4.3631,-4.3653,-4.3711,-4.3723,-4.3817,-4.3772,-4.3902,-4.3845,-4.389,-4.3917,-4.3923,-4.3932,-4.3879,-4.3965,-4.4119,-4.4136,-4.3943,-4.394,-4.3939,0,-4.3075,-4.3212,-4.3318,-4.3356,-4.3451,-4.35,-4.3541,-4.361,-4.3662,-4.3736,-4.377,-4.3854,-4.3899,-4.3964,-4.3998,-4.3962,-4.4125,-4.4083,-4.4145,-4.4144,-4.4178,-4.4175,-4.434,-4.4209,-4.4209,-4.4208,-4.4208,0,-4.3204,-4.3294,-4.3353,-4.3418,-4.3519,-4.3553,-4.3652,-4.3693,-4.3754,-4.3827,-4.3839,-4.3907,-4.3949,-4.4024,-4.4051,-4.4154,-4.4175,-4.4195,-4.4201,-4.4193,-4.419,-4.4221,-4.4213,-4.4213,-4.4212,-4.4211,-4.421,0,-4.3303,-4.3346,-4.3462,-4.3543,-4.3565,-4.3636,-4.3705,-4.3768,-4.3805,-4.3897,-4.3921,-4.3978,-4.4066,-4.4107,-4.4217,-4.4235,-4.4352,-4.4353,-4.4328,-4.433,-4.4389,-4.4383,-4.4578,-4.4605,-4.4458,-4.4459,-4.4461,0,-4.3381,-4.345,-4.3539,-4.3589,-4.3632,-4.3713,-4.3766,-4.3803,-4.3858,-4.3946,-4.3999,-4.4088,-4.4161,-4.4302,-4.4352,-4.4436,-4.4439,-4.4502,-4.4451,-4.4441,-4.4438,-4.4433,-4.444,-4.451,-4.4511,-4.4513,-4.4514,0,-4.3516,-4.3534,-4.361,-4.3695,-4.3759,-4.3827,-4.3894,-4.3934,-4.3982,-4.4043,-4.4134,-4.4191,-4.4303,-4.4391,-4.4479,-4.4521,-4.4525,-4.453,-4.4548,-4.454,-4.4522,-4.4531,-4.4351,-4.4524,-4.4523,-4.4522,-4.4522,-4.4521,-4.3606,-4.3668,-4.374,-4.3825,-4.388,-4.3943,-4.4006,-4.4051,-4.4128,-4.4222,-4.424,-4.4336,-4.4407,-4.4525,-4.4572,-4.4647,-4.4633,-4.466,-4.4667,-4.4672,-4.4675,-4.4511,-4.4664,-4.4664,-4.4663,-4.4663,-4.4663,0,-4.374,-4.3787,-4.3865,-4.3959,-4.4026,-4.4026,-4.41,-4.4156,-4.4241,-4.4307,-4.438,-4.4484,-4.457,-4.4629,-4.4716,-4.4766,-4.477,-4.4787,-4.4783,-4.4793,-4.4684,-4.4658,-4.4782,-4.4782,-4.4782,-4.4782,-4.4782,-4.4782,-4.3817,-4.3922,-4.3949,-4.4082,-4.4129,-4.4224,-4.4266,-4.4324,-4.4377,-4.4494,-4.4566,-4.4604,-4.4667,-4.4759,-4.4838,-4.4853,-4.4884,-4.4902,-4.4916,-4.4813,-4.48,-4.4788,-4.4764,-4.4909,-4.4909,-4.5018,-4.5019,-4.502]},{"header":{"parameterUnit":"m.s-1","parameterCategory":1,"la1":30.2991,"la2":30.254,"lo1":-89.0895,"lo2":-89.0444,"dx":0.0017,"dy":0.0017,"nx":28,"ny":28,"refTime":"2023-02-06T09:00:00:Z","depth":0,"parameterNumber":3,"parameterNumberName":"V-component_of_WINDS"},"data":[0,0,0,0,0,0,0,0,0,0,0,0,0,0,0,0,0,0,0,0,0,0,0,0,0,0,0,0,0,0,0,0,0,0,0,0,0,0,0,0,0,0,0,0,0,0,0,0,0,0,0,0,0,0,0,0,0,0,1.9188,1.9189,0,1.9275,1.9276,1.9277,1.9291,1.929,1.9289,1.9289,1.9377,1.938,1.9383,0,0,0,0,0,0,0,0,0,0,0,0,0,1.9037,1.904,1.9188,1.9189,1.919,1.9274,1.9276,1.9277,1.9291,1.929,1.9289,1.9288,1.9376,1.9379,1.9383,0,0,0,0,0,0,0,0,0,0,0,0,0,1.9111,1.9041,1.9188,1.9208,1.921,1.9274,1.9276,1.9277,1.9291,1.929,1.9289,1.9288,1.9375,1.9379,1.9383,1.9434,0,0,1.9397,1.9399,0,0,0,0,0,0,0,0,1.9107,1.9116,1.9204,1.9206,1.9209,1.9271,1.9255,1.933,1.9291,1.926,1.9289,1.9287,1.9342,1.935,1.9368,1.9438,1.9442,1.9398,1.9401,1.9403,1.9404,0,0,0,0,0,0,0,1.9102,1.9113,1.9222,1.9205,1.9208,1.9213,1.9222,1.9269,1.9307,1.9263,1.9264,1.9274,1.9344,1.9364,1.937,1.9443,1.9398,1.9402,1.9405,1.9406,1.9562,1.9563,0,0,0,0,0,0,1.9093,1.9108,1.922,1.9225,1.9154,1.9216,1.9227,1.9252,1.9306,1.9313,1.9275,1.9275,1.9357,1.9365,1.9373,1.9438,1.9402,1.9407,1.9409,1.9561,1.9562,1.9564,0,0,0,0,0,0,1.909,1.9103,1.9216,1.9167,1.9182,1.922,1.9249,1.9255,1.9275,1.9315,1.9322,1.9289,1.9356,1.9367,1.942,1.9441,1.9409,1.9413,1.9559,1.9561,1.9563,1.9567,0,0,0,0,0,0,1.9085,1.9101,1.912,1.9167,1.9184,1.926,1.925,1.9257,1.9282,1.9283,1.933,1.9336,1.9356,1.9413,1.9424,1.9447,1.9417,1.9557,1.956,1.9562,1.9565,1.9569,1.9572,0,0,0,0,0,1.908,1.9117,1.9121,1.9134,1.9209,1.9261,1.9271,1.9293,1.9284,1.9304,1.9331,1.9335,1.9437,1.9418,1.9431,1.9456,1.9556,1.9559,1.9562,1.9563,1.9568,1.9572,0,0,0,0,0,0,1.907,1.9123,1.9129,1.9182,1.9217,1.9264,1.9289,1.9297,1.9335,1.9333,1.9359,1.9369,1.9421,1.9443,1.9421,1.9509,1.9496,1.9502,1.9492,1.9497,1.95,1.9494,1.942,0,0,0,0,0,1.9075,1.9113,1.9157,1.92,1.9218,1.9251,1.9274,1.9288,1.9325,1.934,1.9371,1.9407,1.9447,1.9473,1.9512,1.9568,1.958,1.9592,1.9595,1.9598,1.9603,1.9637,1.9643,1.9574,1.9574,1.9574,0,0,1.9084,1.9118,1.914,1.9199,1.9228,1.9268,1.9263,1.9304,1.9334,1.9346,1.9398,1.9422,1.9464,1.9519,1.9545,1.954,1.9625,1.9602,1.9604,1.9607,1.964,1.9647,1.9653,1.9576,1.9576,1.9576,0,0,1.9121,1.915,1.919,1.922,1.9264,1.9286,1.9296,1.9342,1.9358,1.9411,1.9422,1.9458,1.9526,1.9557,1.9581,1.9633,1.9639,1.9645,1.9664,1.9697,1.9702,1.9707,1.9727,1.9734,1.965,1.965,1.965,0,1.9127,1.9187,1.921,1.9252,1.9279,1.9293,1.9335,1.9362,1.9416,1.9435,1.9428,1.9517,1.9546,1.9609,1.9622,1.9641,1.9654,1.964,1.9699,1.9705,1.971,1.9729,1.9737,1.9651,1.9651,1.965,1.965,0,1.9193,1.9234,1.9262,1.9315,1.9345,1.9387,1.9417,1.9445,1.9457,1.948,1.9535,1.9571,1.9619,1.9635,1.9646,1.9701,1.9696,1.9694,1.9682,1.9716,1.9736,1.9743,1.9651,1.9651,1.9651,1.9651,0,0,1.9225,1.9293,1.9303,1.9329,1.938,1.9413,1.9456,1.9504,1.9528,1.9565,1.9603,1.9662,1.9662,1.9689,1.9705,1.9733,1.9775,1.9728,1.9729,1.9737,1.984,1.9842,1.985,1.9779,1.9781,1.9782,1.9837,0,1.9269,1.9347,1.937,1.9436,1.9476,1.9491,1.9529,1.9565,1.9588,1.9626,1.9652,1.9694,1.9689,1.9706,1.9735,1.9763,1.9796,1.976,1.9816,1.9817,1.9806,1.986,1.9862,1.9912,1.9844,1.9845,1.9846,0,1.9331,1.9372,1.9441,1.949,1.9508,1.9541,1.9589,1.9624,1.9666,1.9681,1.9714,1.9727,1.9774,1.9759,1.9826,1.9801,1.9825,1.9843,1.9845,1.9852,1.9834,1.9869,1.9928,1.9936,1.9858,1.9857,1.9856,0,1.935,1.9422,1.9474,1.9495,1.9552,1.9576,1.9601,1.9642,1.9671,1.9712,1.9731,1.9776,1.9802,1.9838,1.9864,1.985,1.9929,1.9915,1.9944,1.9943,1.996,1.9959,2.0025,1.9973,1.9973,1.9973,1.9973,0,1.9398,1.944,1.9484,1.9515,1.9564,1.9591,1.9639,1.9665,1.9702,1.974,1.9755,1.9791,1.9823,1.9863,1.9884,1.9937,1.9947,1.9962,1.9967,1.9961,1.996,1.9978,1.9976,1.9975,1.9975,1.9974,1.9974,0,1.9427,1.9457,1.9515,1.9566,1.958,1.9614,1.9658,1.969,1.9714,1.9763,1.9776,1.9814,1.9863,1.9893,1.9953,1.9967,2.0026,2.0029,2.0012,2.0015,2.0043,2.004,2.0124,2.0137,2.0076,2.0076,2.0076,0,1.9456,1.949,1.9544,1.9572,1.9597,1.964,1.967,1.9698,1.9728,1.978,1.9807,1.9856,1.9897,1.9974,2.0008,2.0055,2.0061,2.0087,2.0068,2.0062,2.0063,2.0062,2.0066,2.009,2.0091,2.0091,2.0091,0,1.9505,1.9519,1.9561,1.9609,1.9644,1.9683,1.9722,1.9744,1.9779,1.9812,1.9863,1.9895,1.9958,2.0008,2.0058,2.0085,2.0095,2.0097,2.0107,2.0102,2.0091,2.0099,2.0023,2.0095,2.0095,2.0095,2.0094,2.0094,1.9536,1.9568,1.9612,1.9659,1.9692,1.9729,1.9763,1.9792,1.9835,1.9889,1.9903,1.9957,2.0,2.007,2.0097,2.014,2.0136,2.0149,2.0153,2.0156,2.0158,2.0084,2.0149,2.0149,2.0149,2.0149,2.0149,0,1.9588,1.9618,1.9661,1.9716,1.9753,1.976,1.9804,1.9835,1.9882,1.9922,1.9963,2.0022,2.0071,2.0109,2.016,2.0187,2.0193,2.0199,2.0198,2.0205,2.0157,2.0145,2.0194,2.0194,2.0194,2.0194,2.0194,2.0194,1.9619,1.9674,1.9693,1.9765,1.9795,1.9848,1.9873,1.9907,1.994,2.0005,2.0046,2.0071,2.0112,2.0166,2.0211,2.0222,2.024,2.0246,2.0257,2.0212,2.0208,2.0203,2.0192,2.025,2.025,2.0302,2.0302,2.0302]}]]